CW9560 Weather Reports


Display with metric or nautical units.
time (UTC)temp
F
wind
direction
speed
MPH
gust
MPH
rain 1hr
in
rain 24hr
in
rain mn
in
humidity
%
barometer
mb
20200227114502 41 229 8.0 16.0 0.00 0.00 0.00 72 998.5
20200227114003 41 281 6.0 15.0 0.00 0.00 0.00 70 998.5
20200227113503 41 246 8.0 16.0 0.00 0.00 0.00 73 998.5
20200227113003 41 263 9.0 16.0 0.00 0.00 0.00 74 998.3
20200227112503 40 211 7.0 16.0 0.00 0.00 0.00 77 998.3
20200227112003 40 291 6.0 11.0 0.00 0.00 0.00 78 998.3
20200227111503 40 278 7.0 11.0 0.00 0.00 0.00 78 998.3
20200227111003 39 263 6.0 14.0 0.00 0.00 0.00 78 998.3
20200227110503 39 263 8.0 14.0 0.00 0.00 0.00 77 998.3
20200227110003 39 263 6.0 14.0 0.00 0.00 0.00 76 998.4
20200227105503 40 232 7.0 15.0 0.00 0.00 0.00 76 998.3
20200227105003 40 273 9.0 15.0 0.00 0.00 0.00 77 998.1
20200227104503 39 252 6.0 11.0 0.00 0.00 0.00 79 997.9
20200227104003 38 273 6.0 11.0 0.00 0.00 0.00 80 997.9
20200227103503 38 292 5.0 12.0 0.00 0.00 0.00 80 997.8
20200227103003 38 284 7.0 12.0 0.00 0.00 0.00 80 997.7
20200227102503 38 273 6.0 12.0 0.00 0.00 0.00 81 997.6
20200227102003 37 283 6.0 15.0 0.00 0.00 0.00 80 997.5
20200227101503 37 285 6.0 15.0 0.00 0.00 0.00 82 997.5
20200227101003 37 321 7.0 14.0 0.00 0.00 0.00 83 997.5
20200227100502 37 298 8.0 14.0 0.00 0.00 0.00 83 997.4
20200227100003 36 282 6.0 15.0 0.00 0.00 0.00 83 997.4
20200227095503 36 245 9.0 15.0 0.00 0.00 0.00 83 997.2
20200227095002 36 254 9.0 17.0 0.00 0.00 0.00 82 997.3
20200227094503 36 281 8.0 17.0 0.00 0.00 0.00 82 997.2
20200227094003 36 292 8.0 15.0 0.00 0.00 0.00 81 997.1
20200227093503 36 239 7.0 13.0 0.00 0.00 0.00 81 997.1
20200227093003 36 288 7.0 13.0 0.00 0.00 0.00 80 997.1
20200227092503 36 256 7.0 13.0 0.00 0.00 0.00 81 997.0
20200227092003 36 337 7.0 12.0 0.00 0.00 0.00 82 997.0
20200227091502 35 278 5.0 9.0 0.00 0.00 0.00 83 996.8
20200227091003 35 280 3.0 8.0 0.00 0.00 0.00 83 996.9
20200227090503 35 263 5.0 8.0 0.00 0.00 0.00 84 996.9
20200227090003 35 308 4.0 6.0 0.00 0.00 0.00 84 997.0
20200227085503 35 273 3.0 8.0 0.00 0.00 0.00 84 996.8
20200227085003 35 279 3.0 6.0 0.00 0.00 0.00 84 996.8
20200227084503 35 292 3.0 8.0 0.00 0.00 0.00 83 996.8
20200227084002 35 297 4.0 10.0 0.00 0.00 0.00 83 996.7
20200227083503 34 337 6.0 11.0 0.00 0.00 0.00 83 996.6
20200227083003 34 352 5.0 12.0 0.00 0.00 0.00 84 996.6
20200227082503 34 307 7.0 11.0 0.00 0.00 0.00 84 996.5
20200227082003 33 304 5.0 11.0 0.00 0.00 0.00 85 996.4
20200227081503 33 308 7.0 10.0 0.00 0.00 0.00 86 996.4
20200227081003 33 259 4.0 9.0 0.00 0.00 0.00 87 996.4
20200227080502 32 305 5.0 9.0 0.00 0.00 0.00 88 996.4
20200227080003 32 279 4.0 6.0 0.00 0.00 0.00 88 996.4
20200227075502 32 268 3.0 6.0 0.00 0.00 0.00 88 996.4
20200227075002 32 294 3.0 5.0 0.00 0.00 0.00 87 996.4
20200227074504 32 282 4.0 6.0 0.00 0.00 0.00 87 996.4
20200227074003 32 247 4.0 7.0 0.00 0.00 0.00 87 996.4
20200227073502 32 273 3.0 5.0 0.00 0.00 0.00 87 996.4
20200227073003 32 268 2.0 8.0 0.00 0.00 0.00 86 996.4
20200227072502 32 300 3.0 8.0 0.00 0.00 0.00 86 996.3
20200227072002 33 302 2.0 8.0 0.00 0.00 0.00 86 996.1
20200227071502 33 273 4.0 9.0 0.00 0.00 0.00 86 996.1
20200227071003 33 345 4.0 9.0 0.00 0.00 0.00 86 995.9
20200227070502 33 290 4.0 11.0 0.00 0.00 0.00 86 996.0
20200227070003 33 287 4.0 11.0 0.00 0.00 0.00 86 995.8
20200227065502 33 335 6.0 12.0 0.00 0.00 0.00 87 995.8
20200227065002 33 318 7.0 12.0 0.00 0.00 0.00 87 995.8
20200227064502 33 294 6.0 10.0 0.00 0.00 0.00 87 995.8
20200227064002 33 292 5.0 10.0 0.00 0.00 0.00 88 995.7
20200227063502 33 277 5.0 14.0 0.00 0.00 0.00 88 995.6
20200227063002 32 273 6.0 14.0 0.00 0.00 0.00 89 995.6
20200227062502 32 327 5.0 9.0 0.00 0.00 0.00 89 995.6
20200227062002 32 289 5.0 9.0 0.00 0.00 0.00 88 995.5
20200227061502 32 273 4.0 10.0 0.00 0.00 0.00 89 995.5
20200227061002 32 279 4.0 10.0 0.00 0.00 0.00 88 995.5
20200227060502 32 281 6.0 10.0 0.00 0.00 0.00 88 995.6
20200227060003 32 273 3.0 6.0 0.00 0.00 0.00 86 995.5
20200227055502 33 254 3.0 8.0 0.00 0.00 0.00 85 995.5
20200227055002 33 303 5.0 8.0 0.00 0.00 0.00 84 995.5
20200227054502 33 268 3.0 9.0 0.00 0.00 0.00 84 995.4
20200227054002 33 268 4.0 9.0 0.00 0.00 0.00 84 995.3
20200227053502 33 285 4.0 10.0 0.00 0.00 0.00 85 995.2
20200227053003 33 283 4.0 10.0 0.00 0.00 0.00 85 995.3
20200227052502 33 312 4.0 12.0 0.00 0.00 0.00 85 995.2
20200227052002 33 302 5.0 12.0 0.00 0.00 0.00 85 995.2
20200227051502 32 273 5.0 10.0 0.00 0.00 0.00 85 995.2
20200227051002 33 273 3.0 10.0 0.00 0.00 0.00 85 995.1
20200227050502 33 277 2.0 8.0 0.00 0.00 0.00 85 995.1
20200227050002 33 268 4.0 10.0 0.00 0.00 0.00 85 995.0
20200227045502 33 289 5.0 11.0 0.00 0.00 0.00 85 995.0
20200227045002 33 263 5.0 11.0 0.00 0.00 0.00 85 994.9
20200227044502 33 277 5.0 11.0 0.00 0.00 0.00 86 995.0
20200227044002 33 285 6.0 10.0 0.00 0.00 0.00 86 995.0
20200227043502 33 283 4.0 10.0 0.00 0.00 0.00 86 994.9
20200227043002 33 325 5.0 10.0 0.00 0.00 0.00 86 994.9
20200227042502 33 279 5.0 10.0 0.00 0.00 0.00 86 994.7
20200227042002 33 304 5.0 9.0 0.00 0.00 0.00 86 994.8
20200227041502 33 324 4.0 10.0 0.00 0.00 0.00 86 994.9
20200227041002 33 323 4.0 10.0 0.00 0.00 0.00 86 994.9
20200227040502 33 290 6.0 11.0 0.00 0.00 0.00 87 994.8
20200227040002 34 319 6.0 12.0 0.00 0.00 0.00 87 994.9
20200227035504 34 337 7.0 12.0 0.00 0.00 0.00 87 995.0
20200227035002 34 263 5.0 13.0 0.00 0.00 0.00 87 995.0
20200227034502 34 288 6.0 13.0 0.00 0.00 0.00 87 995.0
20200227034004 34 284 6.0 13.0 0.00 0.00 0.00 88 995.0
20200227033502 34 309 6.0 12.0 0.00 0.00 0.00 88 995.0
20200227033004 34 295 6.0 10.0 0.00 0.00 0.00 88 995.0
20200227032504 34 281 5.0 10.0 0.00 0.00 0.00 88 995.2
20200227032004 34 310 6.0 10.0 0.00 0.00 0.00 88 995.2
20200227031504 34 295 5.0 9.0 0.00 0.00 0.00 88 995.2
20200227031002 34 305 3.0 8.0 0.00 0.00 0.00 88 995.1
20200227030504 33 288 4.0 7.0 0.00 0.00 0.00 89 995.2
20200227030002 33 283 3.0 8.0 0.00 0.00 0.00 88 995.1
20200227025504 33 308 3.0 5.0 0.00 0.00 0.00 89 995.3
20200227025004 34 281 3.0 4.0 0.00 0.00 0.00 89 995.3
20200227024504 34 256 3.0 8.0 0.00 0.00 0.00 89 995.2
20200227024002 34 298 4.0 11.0 0.00 0.00 0.00 89 995.4
20200227023502 34 273 5.0 11.0 0.00 0.00 0.00 89 995.4
20200227023002 34 285 5.0 10.0 0.00 0.00 0.00 89 995.4
20200227022502 34 315 5.0 10.0 0.00 0.00 0.00 89 995.5
20200227022002 34 273 6.0 10.0 0.00 0.00 0.00 88 995.5
20200227021504 34 315 4.0 13.0 0.00 0.00 0.00 88 995.7
20200227021004 34 327 8.0 13.0 0.00 0.00 0.00 88 995.8
20200227020504 34 325 7.0 12.0 0.00 0.00 0.00 88 995.8
20200227020004 35 254 6.0 12.0 0.00 0.00 0.00 88 995.8
20200227015504 35 317 6.0 10.0 0.00 0.00 0.00 88 995.7
20200227015002 35 336 6.0 12.0 0.00 0.00 0.00 88 995.8
20200227014504 35 317 7.0 11.0 0.00 0.00 0.00 88 995.8
20200227014004 35 280 6.0 11.0 0.00 0.00 0.00 88 995.9
20200227013504 35 263 4.0 12.0 0.00 0.00 0.00 88 995.8
20200227013004 35 294 6.0 10.0 0.00 0.00 0.00 88 995.8
20200227012504 35 336 6.0 10.0 0.00 0.00 0.00 88 995.8
20200227012004 35 283 6.0 11.0 0.00 0.00 0.00 88 995.8
20200227011502 35 296 5.0 11.0 0.00 0.00 0.00 88 995.9
20200227011004 35 273 5.0 10.0 0.00 0.00 0.00 89 995.9
20200227010503 35 290 6.0 10.0 0.00 0.00 0.00 89 995.9
20200227010004 34 255 5.0 8.0 0.00 0.00 0.00 90 996.0
20200227005503 34 273 1.0 3.0 0.00 0.00 0.00 91 996.0
20200227005004 34 286 0.0 0.0 0.00 0.00 0.00 91 996.0
20200227004504 34 286 0.0 0.0 0.00 0.00 0.00 90 996.1
20200227004004 34 286 0.0 0.0 0.00 0.00 0.00 90 996.0
20200227003504 34 286 0.0 0.0 0.00 0.00 0.00 90 996.1
20200227003004 34 286 0.0 0.0 0.00 0.00 0.00 90 996.1
20200227002504 34 286 0.0 0.0 0.00 0.00 0.00 90 996.1
20200227002003 34 286 0.0 2.0 0.00 0.00 0.00 90 996.2
20200227001504 34 286 0.0 2.0 0.00 0.00 0.00 90 996.2
20200227001004 34 286 1.0 3.0 0.00 0.00 0.00 90 996.3
20200227000503 34 286 1.0 4.0 0.00 0.00 0.00 89 996.3
20200227000002 34 316 2.0 4.0 0.00 0.00 0.00 89 996.3
20200226235502 35 284 2.0 6.0 0.00 0.00 0.00 89 996.4
20200226235002 35 283 3.0 6.0 0.00 0.00 0.00 89 996.4
20200226234502 35 263 3.0 5.0 0.00 0.00 0.00 88 996.5
20200226234002 35 229 3.0 5.0 0.00 0.00 0.00 88 996.6
20200226233502 35 290 3.0 6.0 0.00 0.00 0.00 88 996.7
20200226233002 34 290 4.0 6.0 0.00 0.00 0.00 88 996.7
20200226232502 34 214 1.0 2.0 0.00 0.00 0.00 89 996.8
20200226232002 34 149 1.0 2.0 0.00 0.00 0.00 89 996.8
20200226231502 34 149 0.0 2.0 0.00 0.00 0.00 89 996.9
20200226231002 34 119 1.0 3.0 0.00 0.00 0.00 89 996.9
20200226230502 34 119 1.0 3.0 0.00 0.00 0.00 89 997.0
20200226230002 34 119 0.0 1.0 0.00 0.00 0.00 88 997.0
20200226225502 35 119 0.0 2.0 0.00 0.00 0.00 88 997.1
20200226225002 35 119 1.0 2.0 0.00 0.00 0.00 88 997.2
20200226224502 35 177 1.0 1.0 0.00 0.00 0.00 88 997.3
20200226224002 35 177 0.0 2.0 0.00 0.00 0.00 87 997.4
20200226223504 35 177 1.0 2.0 0.00 0.00 0.00 87 997.4
20200226223005 35 177 1.0 2.0 0.00 0.00 0.00 87 997.4
20200226222502 35 177 2.0 2.0 0.00 0.00 0.00 87 997.5
20200226222002 35 179 1.0 1.0 0.00 0.00 0.00 86 997.5
20200226221502 36 179 0.0 1.0 0.00 0.00 0.00 86 997.5
20200226221004 36 179 0.0 3.0 0.00 0.00 0.00 86 997.6
20200226220502 36 177 1.0 4.0 0.00 0.00 0.00 86 997.7
20200226220002 36 240 2.0 6.0 0.00 0.00 0.00 86 997.7
20200226215504 36 217 2.0 5.0 0.00 0.00 0.00 86 997.8
20200226215004 36 245 3.0 5.0 0.00 0.00 0.00 86 997.8
20200226214504 36 227 1.0 2.0 0.00 0.00 0.00 86 997.8
20200226214004 36 228 0.0 2.0 0.00 0.00 0.00 86 997.9
20200226213504 36 228 1.0 5.0 0.00 0.00 0.00 86 997.9
20200226213004 36 234 2.0 5.0 0.00 0.00 0.00 86 998.1
20200226212504 36 263 2.0 4.0 0.00 0.00 0.00 86 998.1
20200226212004 36 231 1.0 4.0 0.00 0.00 0.00 86 998.2
20200226211504 36 221 1.0 9.0 0.00 0.00 0.00 86 998.3
20200226211004 36 252 2.0 9.0 0.00 0.00 0.00 86 998.4
20200226210504 35 194 3.0 8.0 0.00 0.00 0.00 87 998.3
20200226210004 35 263 1.0 4.0 0.00 0.00 0.00 87 998.4
20200226205504 35 297 1.0 4.0 0.00 0.00 0.00 88 998.5
20200226205004 35 273 1.0 2.0 0.00 0.00 0.00 87 998.5
20200226204504 35 329 1.0 2.0 0.00 0.00 0.00 87 998.5
20200226204004 35 8 1.0 3.0 0.00 0.00 0.00 87 998.5
20200226203504 35 226 0.0 1.0 0.00 0.00 0.00 87 998.5
20200226203004 35 226 0.0 1.0 0.00 0.00 0.00 87 998.5
20200226202504 35 226 0.0 1.0 0.00 0.00 0.00 87 998.6
20200226202004 35 226 1.0 2.0 0.00 0.00 0.00 87 998.6
20200226201504 36 225 1.0 2.0 0.00 0.00 0.00 87 998.8
20200226201004 36 237 1.0 2.0 0.00 0.00 0.00 87 998.8
20200226200505 36 211 1.0 3.0 0.00 0.00 0.00 87 998.8
20200226200004 36 206 1.0 3.0 0.00 0.00 0.00 87 999.0
20200226195504 36 235 1.0 3.0 0.00 0.00 0.00 87 999.0
20200226195004 36 268 2.0 5.0 0.00 0.00 0.00 86 999.0
20200226194504 36 317 3.0 5.0 0.00 0.00 0.00 87 999.1
20200226194004 36 329 2.0 4.0 0.00 0.00 0.00 87 999.1
20200226193504 36 291 1.0 4.0 0.00 0.00 0.00 87 999.3
20200226193004 36 319 1.0 3.0 0.00 0.00 0.00 86 999.3
20200226192504 36 288 2.0 5.0 0.00 0.00 0.00 86 999.4
20200226192004 36 281 2.0 5.0 0.00 0.00 0.00 86 999.5
20200226191503 36 263 2.0 5.0 0.00 0.00 0.00 86 999.5
20200226191004 36 283 3.0 5.0 0.00 0.00 0.00 85 999.6
20200226190503 36 281 2.0 4.0 0.00 0.00 0.00 84 999.7
20200226190004 36 279 2.0 4.0 0.00 0.00 0.00 83 999.8
20200226185503 36 240 1.0 4.0 0.00 0.00 0.00 82 999.8
20200226185004 36 252 2.0 6.0 0.00 0.00 0.00 82 999.9
20200226184504 36 285 3.0 6.0 0.00 0.00 0.00 81 999.8
20200226184004 36 290 4.0 6.0 0.00 0.00 0.00 81 999.9
20200226183504 36 288 2.0 5.0 0.00 0.00 0.00 81 999.9
20200226183003 36 258 3.0 6.0 0.00 0.00 0.00 81 999.9
20200226182504 36 233 3.0 8.0 0.00 0.00 0.00 81 999.9
20200226182004 37 263 4.0 8.0 0.00 0.00 0.00 80 999.9
20200226181503 37 319 4.0 10.0 0.00 0.00 0.00 79 1000.0
20200226181004 37 263 5.0 10.0 0.00 0.00 0.00 79 999.9
20200226180503 37 289 4.0 9.0 0.00 0.00 0.00 79 999.9
20200226180004 37 290 4.0 8.0 0.00 0.00 0.00 79 999.9
20200226175503 37 283 3.0 8.0 0.00 0.00 0.00 78 999.9
20200226175003 37 301 3.0 9.0 0.00 0.00 0.00 77 999.9
20200226174503 37 263 5.0 9.0 0.00 0.00 0.00 77 999.9
20200226174003 37 246 2.0 6.0 0.00 0.00 0.00 77 999.9
20200226173503 38 273 4.0 8.0 0.00 0.00 0.00 75 999.9
20200226173004 38 287 3.0 10.0 0.00 0.00 0.00 74 999.9
20200226172504 38 247 5.0 10.0 0.00 0.00 0.00 73 999.7
20200226172003 39 231 4.0 11.0 0.00 0.00 0.00 72 999.8
20200226171503 39 263 6.0 11.0 0.00 0.00 0.00 71 999.9
20200226171003 39 324 4.0 10.0 0.00 0.00 0.00 71 999.9
20200226170504 39 241 5.0 11.0 0.00 0.00 0.00 70 1000.0
20200226170004 40 253 5.0 10.0 0.00 0.00 0.00 69 999.9
20200226165504 40 263 7.0 10.0 0.00 0.01 0.00 67 999.9
20200226165004 40 227 5.0 9.0 0.00 0.01 0.00 68 999.8
20200226164504 40 263 5.0 9.0 0.00 0.01 0.00 68 999.9
20200226164003 41 268 2.0 6.0 0.00 0.01 0.00 70 1000.0
20200226163504 41 263 2.0 6.0 0.00 0.01 0.00 71 999.9
20200226163004 41 273 4.0 8.0 0.00 0.01 0.00 70 999.9
20200226162503 41 263 4.0 11.0 0.00 0.01 0.00 70 999.9
20200226162003 41 295 5.0 11.0 0.00 0.01 0.00 69 999.9
20200226161504 42 280 4.0 10.0 0.00 0.01 0.00 68 999.9
20200226161004 42 273 6.0 10.0 0.00 0.01 0.00 67 999.9
20200226160503 42 273 5.0 11.0 0.00 0.01 0.00 68 1000.0
20200226160003 42 256 6.0 12.0 0.00 0.01 0.00 65 1000.0
20200226155503 42 268 6.0 13.0 0.00 0.01 0.00 65 1000.0
20200226155003 42 285 7.0 13.0 0.00 0.01 0.00 64 1000.0
20200226154503 42 303 6.0 17.0 0.00 0.01 0.00 63 1000.0
20200226154003 41 302 8.0 19.0 0.00 0.01 0.00 64 1000.1
20200226153503 41 292 7.0 19.0 0.00 0.01 0.00 64 1000.1
20200226153003 42 301 9.0 21.0 0.00 0.01 0.00 62 1000.1
20200226152503 43 302 12.0 21.0 0.00 0.01 0.00 59 1000.2
20200226152003 44 280 10.0 18.0 0.00 0.01 0.00 56 1000.0
20200226151504 44 287 7.0 15.0 0.00 0.01 0.00 59 999.9
20200226151003 43 263 6.0 15.0 0.00 0.01 0.00 57 1000.0
20200226150504 44 268 8.0 13.0 0.00 0.01 0.00 57 1000.0
20200226150003 44 239 6.0 13.0 0.00 0.01 0.00 57 999.9
20200226145503 44 299 7.0 20.0 0.00 0.01 0.00 55 1000.0
20200226145003 44 283 8.0 20.0 0.00 0.01 0.00 54 999.9
20200226144503 43 282 7.0 15.0 0.00 0.01 0.00 57 999.9
20200226144003 43 268 8.0 16.0 0.00 0.01 0.00 57 999.9
20200226143503 42 239 9.0 16.0 0.00 0.01 0.00 57 999.8
20200226143003 42 227 8.0 15.0 0.00 0.01 0.00 58 999.9
20200226142503 41 283 7.0 15.0 0.00 0.01 0.00 58 999.7
20200226142003 42 273 9.0 19.0 0.00 0.01 0.00 57 999.8
20200226141504 42 268 10.0 20.0 0.00 0.01 0.00 55 999.7
20200226141004 43 310 11.0 21.0 0.00 0.01 0.00 56 999.8
20200226140503 43 300 11.0 18.0 0.00 0.01 0.00 56 999.7
20200226140003 43 263 8.0 21.0 0.00 0.01 0.00 58 999.7
20200226135503 43 244 11.0 23.0 0.00 0.01 0.00 57 999.7
20200226135003 42 250 12.0 23.0 0.00 0.01 0.00 59 999.6
20200226134503 42 273 9.0 18.0 0.00 0.01 0.00 60 999.7
20200226134003 42 263 7.0 21.0 0.00 0.01 0.00 60 999.7
20200226133503 42 293 13.0 21.0 0.00 0.01 0.00 59 999.7
20200226133003 42 288 9.0 15.0 0.00 0.01 0.00 62 999.6
20200226132503 41 317 9.0 18.0 0.00 0.01 0.00 62 999.7
20200226132003 41 242 8.0 18.0 0.00 0.01 0.00 61 999.6
20200226131503 41 273 7.0 14.0 0.00 0.01 0.00 62 999.7
20200226131003 42 296 6.0 15.0 0.00 0.01 0.00 62 999.6
20200226130503 42 268 10.0 17.0 0.00 0.01 0.00 63 999.6
20200226130003 42 278 8.0 15.0 0.00 0.01 0.00 63 999.6
20200226125503 42 300 6.0 15.0 0.00 0.01 0.00 62 999.7
20200226125003 41 252 7.0 20.0 0.00 0.01 0.00 61 999.7
20200226124503 41 213 7.0 20.0 0.00 0.01 0.00 61 999.6
20200226124003 41 224 8.0 18.0 0.00 0.01 0.00 62 999.5
20200226123508 41 255 7.0 17.0 0.00 0.01 0.00 62 999.6
20200226123003 41 241 8.0 20.0 0.00 0.01 0.00 62 999.5
20200226122503 42 312 12.0 20.0 0.00 0.01 0.00 62 999.7
20200226122003 43 313 7.0 17.0 0.00 0.01 0.00 68 999.6
20200226121503 42 263 9.0 16.0 0.00 0.01 0.00 69 999.4
20200226121003 42 304 9.0 16.0 0.00 0.01 0.00 70 999.4
20200226120503 42 298 7.0 15.0 0.00 0.01 0.00 71 999.5
20200226120003 42 273 8.0 14.0 0.00 0.01 0.00 72 999.5
20200226115503 42 285 8.0 14.0 0.00 0.01 0.00 73 999.6
20200226115003 41 273 6.0 11.0 0.00 0.01 0.00 73 999.7